• în Republica Moldova
  • Lista ţărilor
  • Pe 7 zile
  • Temperatura apei
  • Hartă satelitară
  • Meteo pe hartă
  • Widget-uri
  • user-avatar
    Intrare

    Meteo pe oră la Durres

    Astăzi, 18 August, Vineri

    Timp Temperatura Precipitaţii Vânt Presiune Umiditate
    00:00 +26°C° 0 mm 4 m/s 760 mmHg 48%
    01:00 +26°C° 0 mm 4 m/s 760 mmHg 49%
    02:00 +26°C° 0 mm 4 m/s 760 mmHg 48%
    03:00 +26°C° 0 mm 4 m/s 760 mmHg 48%
    04:00 +25°C° 0 mm 4 m/s 760 mmHg 48%
    05:00 +27°C° 0 mm 4 m/s 760 mmHg 45%
    06:00 +28°C° 0 mm 4 m/s 760 mmHg 41%
    07:00 +32°C° 0 mm 4 m/s 760 mmHg 36%
    08:00 +34°C° 0 mm 3 m/s 760 mmHg 32%
    09:00 +36°C° 0 mm 3 m/s 760 mmHg 27%
    10:00 +38°C° 0 mm 3 m/s 760 mmHg 23%
    11:00 +38°C° 0 mm 4 m/s 760 mmHg 22%
    12:00 +40°C° 0 mm 4 m/s 760 mmHg 21%
    13:00 +41°C° 0 mm 5 m/s 760 mmHg 20%
    14:00 +40°C° 0 mm 5 m/s 760 mmHg 22%
    15:00 +39°C° 0 mm 6 m/s 759 mmHg 24%
    16:00 +38°C° 0 mm 6 m/s 759 mmHg 26%
    17:00 +35°C° 0 mm 5 m/s 759 mmHg 33%
    18:00 +32°C° 0 mm 4 m/s 759 mmHg 39%
    19:00 +29°C° 0 mm 4 m/s 760 mmHg 46%
    20:00 +29°C° 0 mm 3 m/s 760 mmHg 46%
    21:00 +28°C° 0 mm 2 m/s 760 mmHg 46%
    22:00 +28°C° 0 mm 2 m/s 760 mmHg 46%
    23:00 +27°C° 0 mm 2 m/s 760 mmHg 45%

    Mâine, 19 August, Sâmbătă

    Timp Temperatura Precipitaţii Vânt Presiune Umiditate
    00:00 +27°C° 0 mm 2 m/s 760 mmHg 44%
    01:00 +26°C° 0 mm 2 m/s 760 mmHg 42%
    02:00 +26°C° 0 mm 2 m/s 760 mmHg 41%
    03:00 +26°C° 0 mm 1 m/s 760 mmHg 40%
    04:00 +25°C° 0 mm 1 m/s 760 mmHg 39%
    05:00 +27°C° 0 mm 1 m/s 760 mmHg 37%
    06:00 +29°C° 0 mm 1 m/s 760 mmHg 35%
    07:00 +30°C° 0 mm 2 m/s 760 mmHg 32%
    08:00 +32°C° 0 mm 2 m/s 760 mmHg 29%
    09:00 +36°C° 0 mm 2 m/s 760 mmHg 25%
    10:00 +38°C° 0 mm 2 m/s 760 mmHg 22%
    11:00 +38°C° 0 mm 2 m/s 759 mmHg 22%
    12:00 +39°C° 0 mm 3 m/s 759 mmHg 21%
    13:00 +40°C° 0 mm 4 m/s 759 mmHg 21%
    14:00 +39°C° 0 mm 3 m/s 759 mmHg 23%
    15:00 +38°C° 0 mm 3 m/s 758 mmHg 25%
    16:00 +37°C° 0 mm 2 m/s 758 mmHg 27%
    17:00 +34°C° 0 mm 2 m/s 758 mmHg 34%
    18:00 +31°C° 0 mm 1 m/s 758 mmHg 41%
    19:00 +28°C° 0 mm 1 m/s 759 mmHg 48%
    20:00 +28°C° 0 mm 1 m/s 759 mmHg 48%
    21:00 +27°C° 0 mm 2 m/s 759 mmHg 48%
    22:00 +27°C° 0 mm 2 m/s 759 mmHg 48%
    23:00 +26°C° 0 mm 2 m/s 759 mmHg 48%

    Poimâine, 20 August, Duminică

    Timp Temperatura Precipitaţii Vânt Presiune Umiditate
    00:00 +26°C° 0 mm 2 m/s 759 mmHg 48%
    01:00 +26°C° 0 mm 3 m/s 758 mmHg 48%
    02:00 +25°C° 0 mm 3 m/s 758 mmHg 47%
    03:00 +25°C° 0 mm 3 m/s 758 mmHg 47%
    04:00 +25°C° 0 mm 3 m/s 758 mmHg 47%
    05:00 +27°C° 0 mm 3 m/s 758 mmHg 43%
    06:00 +28°C° 0 mm 3 m/s 758 mmHg 38%
    07:00 +30°C° 0 mm 3 m/s 758 mmHg 34%
    08:00 +33°C° 0 mm 3 m/s 758 mmHg 30%
    09:00 +35°C° 0 mm 3 m/s 758 mmHg 27%
    10:00 +37°C° 0 mm 3 m/s 758 mmHg 23%
    11:00 +38°C° 0 mm 3 m/s 757 mmHg 22%
    12:00 +38°C° 0 mm 4 m/s 757 mmHg 22%
    13:00 +40°C° 0 mm 4 m/s 757 mmHg 21%
    14:00 +38°C° 0 mm 4 m/s 757 mmHg 24%
    15:00 +37°C° 0 mm 3 m/s 756 mmHg 27%
    16:00 +36°C° 0 mm 3 m/s 756 mmHg 30%
    17:00 +32°C° 0 mm 2 m/s 756 mmHg 37%
    18:00 +30°C° 0 mm 2 m/s 757 mmHg 45%
    19:00 +27°C° 0 mm 2 m/s 757 mmHg 53%
    20:00 +27°C° 0,6 mm 2 m/s 757 mmHg 57%
    21:00 +26°C° 0,6 mm 3 m/s 757 mmHg 61%
    22:00 +25°C° 0,6 mm 3 m/s 758 mmHg 65%
    23:00 +25°C° 1 mm 4 m/s 758 mmHg 71%

    21 August, Luni

    Timp Temperatura Precipitaţii Vânt Presiune Umiditate
    00:00 +23°C° 1 mm 4 m/s 758 mmHg 77%
    01:00 +23°C° 1 mm 4 m/s 758 mmHg 84%
    02:00 +24°C° 0,1 mm 3 m/s 758 mmHg 83%
    03:00 +23°C° 0,1 mm 2 m/s 757 mmHg 82%
    04:00 +23°C° 0,1 mm 2 m/s 757 mmHg 81%
    05:00 +24°C° 0 mm 2 m/s 757 mmHg 76%
    06:00 +25°C° 0 mm 2 m/s 757 mmHg 70%
    07:00 +26°C° 0 mm 3 m/s 758 mmHg 65%
    08:00 +28°C° 0 mm 3 m/s 758 mmHg 56%
    09:00 +30°C° 0 mm 3 m/s 758 mmHg 47%
    10:00 +33°C° 0 mm 4 m/s 758 mmHg 39%
    11:00 +34°C° 0 mm 4 m/s 758 mmHg 36%
    12:00 +34°C° 0 mm 5 m/s 757 mmHg 34%
    13:00 +35°C° 0 mm 6 m/s 757 mmHg 32%
    14:00 +34°C° 0 mm 7 m/s 757 mmHg 32%
    15:00 +34°C° 0 mm 7 m/s 757 mmHg 32%
    16:00 +34°C° 0 mm 8 m/s 757 mmHg 32%
    17:00 +31°C° 0 mm 8 m/s 757 mmHg 39%
    18:00 +28°C° 0 mm 7 m/s 757 mmHg 45%
    19:00 +26°C° 0 mm 7 m/s 758 mmHg 52%
    20:00 +24°C° 0 mm 7 m/s 758 mmHg 55%
    21:00 +23°C° 0 mm 6 m/s 758 mmHg 58%
    22:00 +22°C° 0 mm 6 m/s 759 mmHg 61%
    23:00 +22°C° 0 mm 6 m/s 759 mmHg 61%

    22 August, Marţi

    Timp Temperatura Precipitaţii Vânt Presiune Umiditate
    00:00 +21°C° 0 mm 6 m/s 759 mmHg 61%
    01:00 +21°C° 0 mm 6 m/s 759 mmHg 62%
    02:00 +20°C° 0 mm 6 m/s 759 mmHg 62%
    03:00 +20°C° 0 mm 6 m/s 759 mmHg 62%
    04:00 +19°C° 0 mm 6 m/s 759 mmHg 62%
    05:00 +21°C° 0 mm 5 m/s 759 mmHg 56%
    06:00 +22°C° 0 mm 5 m/s 760 mmHg 51%
    07:00 +25°C° 0 mm 5 m/s 760 mmHg 45%
    08:00 +27°C° 0 mm 5 m/s 760 mmHg 39%
    09:00 +29°C° 0 mm 5 m/s 760 mmHg 33%
    10:00 +30°C° 0 mm 5 m/s 760 mmHg 27%
    11:00 +32°C° 0 mm 6 m/s 760 mmHg 24%
    12:00 +33°C° 0 mm 6 m/s 759 mmHg 22%
    13:00 +34°C° 0 mm 7 m/s 759 mmHg 19%
    14:00 +34°C° 0 mm 7 m/s 759 mmHg 20%
    15:00 +33°C° 0 mm 8 m/s 759 mmHg 21%
    16:00 +32°C° 0 mm 8 m/s 759 mmHg 23%
    17:00 +29°C° 0 mm 8 m/s 759 mmHg 32%
    18:00 +26°C° 0 mm 7 m/s 759 mmHg 41%
    19:00 +22°C° 0 mm 7 m/s 759 mmHg 50%
    20:00 +22°C° 0 mm 6 m/s 760 mmHg 48%
    21:00 +21°C° 0 mm 5 m/s 760 mmHg 46%
    22:00 +21°C° 0 mm 4 m/s 760 mmHg 45%
    23:00 +20°C° 0 mm 4 m/s 760 mmHg 43%

    23 August, Miercuri

    Timp Temperatura Precipitaţii Vânt Presiune Umiditate
    00:00 +20°C° 0 mm 4 m/s 760 mmHg 42%
    01:00 +20°C° 0 mm 4 m/s 760 mmHg 41%
    02:00 +19°C° 0 mm 3 m/s 760 mmHg 42%
    03:00 +19°C° 0 mm 3 m/s 760 mmHg 43%
    04:00 +19°C° 0 mm 3 m/s 761 mmHg 44%
    05:00 +20°C° 0 mm 3 m/s 761 mmHg 42%
    06:00 +22°C° 0 mm 3 m/s 761 mmHg 39%
    07:00 +24°C° 0 mm 3 m/s 761 mmHg 37%
    08:00 +27°C° 0 mm 3 m/s 761 mmHg 32%
    09:00 +29°C° 0 mm 3 m/s 761 mmHg 27%
    10:00 +33°C° 0 mm 3 m/s 761 mmHg 22%
    11:00 +34°C° 0 mm 4 m/s 761 mmHg 20%
    12:00 +34°C° 0 mm 5 m/s 761 mmHg 18%
    13:00 +35°C° 0 mm 6 m/s 760 mmHg 17%
    14:00 +34°C° 0 mm 6 m/s 760 mmHg 18%
    15:00 +34°C° 0 mm 6 m/s 760 mmHg 19%
    16:00 +33°C° 0 mm 6 m/s 760 mmHg 20%
    17:00 +29°C° 0 mm 6 m/s 760 mmHg 28%
    18:00 +26°C° 0 mm 5 m/s 761 mmHg 36%
    19:00 +22°C° 0 mm 4 m/s 761 mmHg 44%
    20:00 +22°C° 0 mm 4 m/s 761 mmHg 43%
    21:00 +22°C° 0 mm 3 m/s 762 mmHg 41%
    22:00 +21°C° 0 mm 3 m/s 762 mmHg 39%
    23:00 +21°C° 0 mm 2 m/s 762 mmHg 38%
    Arată mai mult